NSZ2030 EVRA-ESSA

Flight info

Callsign NSZ2030
Flight time 0h 17m
Altitude 32000
Route LAPSA DCT RUDNI N623 NEKET DCT TOMBU N616 XILAN
Aircraft B738/M-SDE2E3FGHIRWXY/LB1

Departure

Time 2026-05-07 08:10
Airport Riga International Airport (EVRA)

Arrival

Time 2026-05-07 08:27
Airport Stockholm-Arlanda Airport (ESSA)
Time Latitude Longitude Altitude Speed Heading
2026-05-07 07:53 56.92080 23.97608 45 ft 0 kts 136°
2026-05-07 08:03 56.92087 23.97595 45 ft 2 kts 136°
2026-05-07 08:03 56.92099 23.97574 45 ft 2 kts 136°
2026-05-07 08:04 56.92112 23.97558 43 ft 2 kts 186°
2026-05-07 08:04 56.92128 23.97567 43 ft 2 kts 217°
2026-05-07 08:04 56.92138 23.97589 40 ft 2 kts 254°
2026-05-07 08:04 56.92140 23.97615 40 ft 0 kts 277°
2026-05-07 08:07 56.92143 23.97554 45 ft 11 kts 276°
2026-05-07 08:07 56.92078 23.97461 45 ft 17 kts 185°
2026-05-07 08:07 56.91956 23.97444 45 ft 18 kts 181°
2026-05-07 08:07 56.91811 23.97426 45 ft 24 kts 185°
2026-05-07 08:08 56.91649 23.97399 44 ft 23 kts 185°
2026-05-07 08:08 56.91492 23.97375 43 ft 22 kts 185°
2026-05-07 08:08 56.91359 23.97335 45 ft 17 kts 212°
2026-05-07 08:08 56.91282 23.97178 45 ft 16 kts 236°
2026-05-07 08:09 56.91284 23.96989 45 ft 17 kts 315°
2026-05-07 08:09 56.91477 23.96974 45 ft 56 kts
2026-05-07 08:09 56.92115 23.97084 46 ft 125 kts
2026-05-07 08:09 56.93149 23.97263 330 ft 157 kts
2026-05-07 08:10 56.94202 23.97462 1388 ft 157 kts 11°
2026-05-07 08:10 56.95348 23.97712 2202 ft 169 kts 10°
2026-05-07 08:10 56.96601 23.97276 2797 ft 204 kts 339°
2026-05-07 08:10 56.97700 23.95474 3266 ft 230 kts 302°
2026-05-07 08:11 56.98093 23.92541 3793 ft 246 kts 267°
2026-05-07 08:11 56.97486 23.89599 4328 ft 260 kts 231°
2026-05-07 08:11 56.96323 23.86967 4962 ft 269 kts 233°
2026-05-07 08:11 56.95227 23.84207 5874 ft 264 kts 236°
2026-05-07 08:12 56.94219 23.81544 7137 ft 245 kts 233°
2026-05-07 08:12 56.93150 23.79246 8248 ft 238 kts 230°
2026-05-07 08:12 56.92153 23.76751 8788 ft 255 kts 249°
2026-05-07 08:12 56.91981 23.73403 9203 ft 275 kts 278°
2026-05-07 08:13 56.92526 23.70012 10080 ft 278 kts 287°
2026-05-07 08:13 56.93152 23.66683 10983 ft 278 kts 288°
2026-05-07 08:13 56.94216 23.63559 11354 ft 306 kts 307°
2026-05-07 08:13 56.95652 23.60539 11686 ft 325 kts 307°
2026-05-07 08:14 56.97200 23.57315 11906 ft 347 kts 308°
2026-05-07 08:14 56.98830 23.53951 12484 ft 356 kts 308°
2026-05-07 08:14 57.03516 23.44271 14586 ft 364 kts 307°
2026-05-07 08:14 57.09802 23.29417 17244 ft 374 kts 300°
2026-05-07 08:15 57.15998 23.13675 19696 ft 385 kts 301°
2026-05-07 08:15 57.22639 22.97842 21902 ft 396 kts 301°
2026-05-07 08:15 57.29475 22.81516 23871 ft 405 kts 298°
2026-05-07 08:15 57.33965 22.62715 25572 ft 402 kts 287°
2026-05-07 08:16 57.39630 22.44283 27086 ft 417 kts 294°
2026-05-07 08:16 57.47252 22.27301 28553 ft 436 kts 307°
2026-05-07 08:16 57.55685 22.11331 30514 ft 427 kts 306°
2026-05-07 08:16 57.63804 21.95217 31862 ft 427 kts 306°
2026-05-07 08:17 57.72000 21.78657 32146 ft 443 kts 306°
2026-05-07 08:17 58.27058 20.65552 31907 ft 446 kts 306°
2026-05-07 08:17 58.36183 20.50851 32014 ft 454 kts 325°
2026-05-07 08:18 58.47264 20.39872 32027 ft 443 kts 325°
2026-05-07 08:18 58.68380 20.17150 32087 ft 434 kts 323°
2026-05-07 08:19 58.89421 19.94141 30288 ft 425 kts 322°
2026-05-07 08:19 59.00614 19.81765 28014 ft 408 kts 322°
2026-05-07 08:19 59.19632 19.60462 24440 ft 381 kts 323°
2026-05-07 08:19 59.37475 19.40229 20718 ft 361 kts 324°
2026-05-07 08:20 59.54162 19.21170 17381 ft 340 kts 325°
2026-05-07 08:20 59.64178 19.09614 15411 ft 325 kts 324°
2026-05-07 08:20 59.70057 18.97744 14463 ft 286 kts 294°
2026-05-07 08:20 59.73582 18.84482 13699 ft 266 kts 296°
2026-05-07 08:21 59.77439 18.71999 12404 ft 265 kts 299°
2026-05-07 08:21 59.81361 18.59722 11187 ft 264 kts 300°
2026-05-07 08:21 59.85244 18.47539 10012 ft 262 kts 301°
2026-05-07 08:21 59.89013 18.35254 8838 ft 258 kts 288°
2026-05-07 08:22 59.86293 18.22800 7780 ft 251 kts 241°
2026-05-07 08:22 59.85308 18.19297 7402 ft 252 kts 242°
2026-05-07 08:22 59.84433 18.16214 6835 ft 260 kts 241°
2026-05-07 08:22 59.83518 18.13082 6237 ft 264 kts 240°
2026-05-07 08:23 59.82607 18.09963 5708 ft 264 kts 240°
2026-05-07 08:23 59.81684 18.06817 5326 ft 262 kts 240°
2026-05-07 08:23 59.80843 18.03661 4983 ft 256 kts 254°
2026-05-07 08:23 59.80547 18.00204 4543 ft 251 kts 250°
2026-05-07 08:24 59.79552 17.97584 4382 ft 235 kts 208°
2026-05-07 08:24 59.78001 17.97099 3792 ft 230 kts 167°
2026-05-07 08:24 59.76523 17.98371 3064 ft 233 kts 154°
2026-05-07 08:24 59.75011 17.99457 2455 ft 229 kts 175°
2026-05-07 08:25 59.73480 17.99117 2019 ft 213 kts 191°
2026-05-07 08:25 59.72065 17.98492 1590 ft 203 kts 189°
2026-05-07 08:25 59.70725 17.98109 1371 ft 184 kts 187°
2026-05-07 08:25 59.69529 17.97706 1174 ft 167 kts 191°
2026-05-07 08:26 59.67434 17.96831 672 ft 145 kts 190°
2026-05-07 08:26 59.66456 17.96471 466 ft 142 kts 191°
2026-05-07 08:26 59.65476 17.96111 293 ft 144 kts 191°
2026-05-07 08:27 59.64492 17.95754 110 ft 139 kts 191°
2026-05-07 08:27 59.63709 17.95466 116 ft 84 kts 190°
2026-05-07 08:27 59.63324 17.95181 121 ft 41 kts 219°
2026-05-07 08:27 59.63263 17.94924 122 ft 18 kts 320°
2026-05-07 08:28 59.63387 17.94938 120 ft 20 kts 10°
2026-05-07 08:28 59.63555 17.94999 115 ft 28 kts 10°
2026-05-07 08:28 59.63754 17.95071 110 ft 29 kts 10°
2026-05-07 08:28 59.63945 17.95140 108 ft 27 kts 10°
2026-05-07 08:29 59.64123 17.95207 107 ft 25 kts 11°
2026-05-07 08:29 59.64290 17.95215 104 ft 24 kts 336°
2026-05-07 08:29 59.64396 17.94987 102 ft 26 kts 287°
2026-05-07 08:29 59.64340 17.94577 101 ft 36 kts 237°
2026-05-07 08:30 59.64211 17.94172 104 ft 33 kts 237°
2026-05-07 08:30 59.64093 17.93816 109 ft 29 kts 238°
2026-05-07 08:30 59.63996 17.93475 111 ft 28 kts 254°
2026-05-07 08:30 59.64033 17.93126 110 ft 26 kts 297°
2026-05-07 08:31 59.64113 17.92820 110 ft 24 kts 297°
2026-05-07 08:31 59.64187 17.92538 113 ft 23 kts 298°
2026-05-07 08:31 59.64259 17.92264 115 ft 22 kts 299°
2026-05-07 08:31 59.64345 17.92080 113 ft 18 kts 356°
2026-05-07 08:32 59.64468 17.92119 111 ft 18 kts
2026-05-07 08:32 59.64590 17.92161 111 ft 18 kts 10°
2026-05-07 08:32 59.64700 17.92216 109 ft 15 kts 36°
2026-05-07 08:32 59.64707 17.92402 111 ft 14 kts 106°
2026-05-07 08:33 59.64687 17.92541 111 ft 7 kts 106°
2026-05-07 08:33 59.64671 17.92635 111 ft 7 kts 115°
2026-05-07 08:33 59.64665 17.92685 111 ft 2 kts 67°
2026-05-07 08:33 59.64672 17.92706 111 ft 2 kts 50°
2026-05-07 08:34 59.64685 17.92718 111 ft 2 kts 26°
2026-05-07 08:34 59.64694 17.92727 111 ft 1 kts 26°
2026-05-07 08:34 59.64696 17.92728 111 ft 0 kts 26°